Tracking 19570 objects as of 22-Feb-2019
HD Live streaming from Space Station
objects crossing your sky now

RADUGA 17

Track RADUGA 17 now!
RADUGA 17 is classified as:


NORAD ID: 16250
Int'l Code: 1985-107A
Perigee: 35,805.2 km
Apogee: 35,860.3 km
Inclination: 13.8 °
Period: 1,438.1 minutes
Semi major axis: 42203 km
RCS: 3.981 m2 (large)
Launch date: November 15, 1985
Source: Commonwealth of Independent States (former USSR) (CIS)
Launch site: TYURATAM MISSILE AND SPACE COMPLEX (TTMTR)
aabbcc
Your satellite tracking list
Your tracking list is empty




NASA's NSSDC Master Catalog

Two Line Element Set (TLE):
1 16250U 85107A   19051.75605013 -.00000308  00000-0  00000+0 0  9999
2 16250  13.7881 340.6242 0006533 148.4837  33.7385  1.00132846125021
Source of the keplerian elements: AFSPC